This is the latest recevied weather packets stored in our database for station/object DB0LHR-6. If no packets are shown the sender has not sent any weather packets the latest 10 day(s).
| Time | Temp. | Humidity | Pressure | Rain* | Wind** | Luminosity | Snow |
|---|---|---|---|---|---|---|---|
| 1778322016 | 21.67° C | 45% | 1016 hPa | 0 mm | - | - | - |
| 1778321116 | 21.11° C | 48% | 1017 hPa | 0 mm | - | - | - |
| 1778320216 | 20.56° C | 52% | 1017 hPa | 0 mm | - | - | - |
| 1778319316 | 20° C | 49% | 1017 hPa | 0 mm | - | - | - |
| 1778318416 | 19.44° C | 48% | 1017 hPa | 0 mm | - | - | - |
| 1778317516 | 18.89° C | 50% | 1017 hPa | 0 mm | - | - | - |
| 1778316616 | 18.89° C | 52% | 1017 hPa | 0 mm | - | - | - |
| 1778315716 | 18.33° C | 49% | 1017 hPa | 0 mm | - | - | - |
| 1778314818 | 19.44° C | 45% | 1017 hPa | 0 mm | - | - | - |
| 1778313916 | 18.89° C | 50% | 1017 hPa | 0 mm | - | - | - |
| 1778313016 | 18.33° C | 52% | 1017 hPa | 0 mm | - | - | - |
| 1778312116 | 17.78° C | 53% | 1017 hPa | 0 mm | - | - | - |
| 1778311216 | 16.67° C | 58% | 1017 hPa | 0 mm | - | - | - |
| 1778310316 | 16.11° C | 64% | 1017 hPa | 0 mm | - | - | - |
| 1778309416 | 15° C | 66% | 1017 hPa | 0 mm | - | - | - |
| 1778308516 | 15° C | 70% | 1017 hPa | 0 mm | - | - | - |
| 1778307616 | 13.89° C | 74% | 1017 hPa | 0 mm | - | - | - |
| 1778306716 | 13.33° C | 78% | 1017 hPa | 0 mm | - | - | - |
| 1778305816 | 12.78° C | 82% | 1017 hPa | 0 mm | - | - | - |
| 1778304916 | 11.67° C | 85% | 1017 hPa | 0 mm | - | - | - |
| 1778304016 | 11.11° C | 85% | 1016 hPa | 0 mm | - | - | - |
| 1778303116 | 10.56° C | 84% | 1016 hPa | 0 mm | - | - | - |
| 1778302216 | 10.56° C | 84% | 1016 hPa | 0 mm | - | - | - |
| 1778301316 | 10.56° C | 84% | 1016 hPa | 0 mm | - | - | - |
| 1778300416 | 10° C | 84% | 1016 hPa | 0 mm | - | - | - |
* Rain latest 24 hours (hover to see other rain measurements)
** Current wind speed in m/s (hover to see current wind gust speed)